Погода в Ляньюньгане

Китай     34°36′04″N   119°10′09″E
темп.,
°C
ветер,
м/с
пор.,
м/с
влажн.,
%
обл.,
%
осадки,
мм/ч
давл.,
гПа
погр.,
м
22 января, сб
сб2223:00+2в367883 0.0 1027175
02:00+2всв2678100 0.0 1026198
05:00+3всв2582100 0.0 1024141
08:00+4всв3782100 0.0 1024274
11:00+6всв4874100 0.0 1025683
14:00+5всв5880100 0.1 1022668
17:00+4св5991100 0.7 1022629
20:00+4св61090100 1.0 1023620
23 января, вс
вс2323:00+4св5991100 0.6 1024627
02:00+4св61090100 1.8 1024659
05:00+4св71185100 0.4 1023743
08:00+4ссв71179100 0.5 1025798
11:00+4св6979100 0.0 1026889
14:00+4ссв6876100 0.0 1024847
17:00+4св597094 0.0 1025746
20:00+3св3774100 0.0 1025268
24 января, пн
пн2423:00+1ссв4872100 0.0 1026334
02:000с2476100 0.0 1025155
05:000с2472100 0.0 1025314
08:00+1ссв236882 0.0 1026387
11:00+3ссв225498 0.0 1026686
14:00+5с2251100 0.0 1023881
17:00+4ссв2257100 0.0 1024147
20:00+2в116816 0.0 102522
25 января, вт
вт2523:00+1ссв117199 0.0 102511
02:00+1зсз117365 0.0 102511
05:00+2с1269100 0.0 102453
08:00+1ссв117060 0.0 102544
11:00+5с2253100 0.0 1026754
14:00+7ссв2246100 0.0 10241098
17:00+5всв3451100 0.0 1024189
20:00+2всв2364100 0.0 102673
26 января, ср
ср2623:00+2св2269100 0.0 102722
02:00+2ссв1272100 0.0 102716
05:00+1ссв357578 0.0 1028120
08:00+2св49665 0.0 1029397
11:00+5св783944 0.0 1030884
14:00+6св6739100 0.0 1028972
17:00+4св584797 0.0 1029727
20:00+3всв385299 0.0 1030376